When you browse on this site, cookies collect data to enhance your experience and personalize the content and advertising you see.
Visit our Privacy Policy to learn more. By continuing to use the site, you agree to this use of cookies and data.
  • In Hungary
  • List of Countries
  • For 7 days
  • Water Temperature
  • Satellite Maps
  • Weather Map
  • News
  • Weather Widgets
  • user-avatar
    Login

    Hourly Weather Chelmsford

    Today, 18 November, Sunday

    Time Temperature Precipitation Wind Pressure Humidity
    00:00 +7°C° 0 mm 5 mps 768 mmHg 73%
    01:00 +6°C° 0 mm 5 mps 768 mmHg 75%
    02:00 +6°C° 0 mm 5 mps 768 mmHg 76%
    03:00 +6°C° 0 mm 5 mps 768 mmHg 78%
    04:00 +6°C° 0 mm 5 mps 768 mmHg 77%
    05:00 +6°C° 0 mm 5 mps 768 mmHg 77%
    06:00 +5°C° 0 mm 5 mps 768 mmHg 77%
    07:00 +6°C° 0 mm 5 mps 768 mmHg 75%
    08:00 +5°C° 0 mm 6 mps 768 mmHg 74%
    09:00 +7°C° 0 mm 6 mps 768 mmHg 72%
    10:00 +8°C° 0 mm 6 mps 768 mmHg 67%
    11:00 +9°C° 0 mm 6 mps 768 mmHg 63%
    12:00 +10°C° 0 mm 6 mps 768 mmHg 59%
    13:00 +9°C° 0 mm 6 mps 767 mmHg 59%
    14:00 +9°C° 0 mm 6 mps 767 mmHg 59%
    15:00 +9°C° 0 mm 7 mps 766 mmHg 59%
    16:00 +8°C° 0 mm 7 mps 766 mmHg 58%
    17:00 +8°C° 0 mm 6 mps 766 mmHg 58%
    18:00 +7°C° 0 mm 6 mps 766 mmHg 58%
    19:00 +7°C° 0 mm 6 mps 766 mmHg 57%
    20:00 +7°C° 0 mm 6 mps 766 mmHg 57%
    21:00 +7°C° 0 mm 6 mps 766 mmHg 57%
    22:00 +5°C° 0 mm 6 mps 766 mmHg 60%
    23:00 +5°C° 0 mm 6 mps 766 mmHg 64%

    Tomorrow, 19 November, Monday

    Time Temperature Precipitation Wind Pressure Humidity
    00:00 +5°C° 0 mm 7 mps 766 mmHg 68%
    01:00 +5°C° 0 mm 7 mps 765 mmHg 70%
    02:00 +5°C° 0 mm 7 mps 765 mmHg 73%
    03:00 +5°C° 0 mm 8 mps 765 mmHg 75%
    04:00 +5°C° 0 mm 8 mps 765 mmHg 74%
    05:00 +5°C° 0 mm 8 mps 765 mmHg 72%
    06:00 +5°C° 0 mm 8 mps 764 mmHg 71%
    07:00 +6°C° 0.1 mm 8 mps 764 mmHg 69%
    08:00 +6°C° 0.1 mm 8 mps 764 mmHg 68%
    09:00 +6°C° 0.1 mm 8 mps 764 mmHg 67%
    10:00 +6°C° 0.1 mm 8 mps 764 mmHg 66%
    11:00 +6°C° 0.1 mm 8 mps 763 mmHg 64%
    12:00 +7°C° 0.1 mm 8 mps 763 mmHg 63%
    13:00 +7°C° 0.1 mm 8 mps 762 mmHg 63%
    14:00 +7°C° 0.1 mm 8 mps 762 mmHg 62%
    15:00 +7°C° 0.1 mm 8 mps 761 mmHg 61%
    16:00 +6°C° 0.1 mm 8 mps 761 mmHg 62%
    17:00 +6°C° 0.1 mm 8 mps 760 mmHg 63%
    18:00 +6°C° 0.1 mm 8 mps 760 mmHg 64%
    19:00 +6°C° 0.2 mm 8 mps 760 mmHg 64%
    20:00 +5°C° 0.2 mm 8 mps 760 mmHg 64%
    21:00 +5°C° 0.2 mm 8 mps 759 mmHg 64%
    22:00 +5°C° 0.1 mm 8 mps 759 mmHg 65%
    23:00 +4°C° 0.1 mm 8 mps 759 mmHg 65%

    Day after tomorrow, 20 November, Tuesday

    Time Temperature Precipitation Wind Pressure Humidity
    00:00 +4°C° 0.1 mm 8 mps 758 mmHg 66%
    01:00 +4°C° 0.2 mm 8 mps 758 mmHg 66%
    02:00 +4°C° 0.2 mm 8 mps 757 mmHg 67%
    03:00 +3°C° 0.2 mm 9 mps 757 mmHg 67%
    04:00 +4°C° 0.2 mm 8 mps 757 mmHg 68%
    05:00 +4°C° 0.2 mm 8 mps 756 mmHg 69%
    06:00 +2°C° 0.2 mm 8 mps 756 mmHg 71%
    07:00 +2°C° 0.4 mm 9 mps 755 mmHg 71%
    08:00 +2°C° 0.4 mm 9 mps 755 mmHg 72%
    09:00 +2°C° 0.4 mm 9 mps 755 mmHg 73%
    10:00 +3°C° 0.5 mm 9 mps 754 mmHg 72%
    11:00 +4°C° 0.5 mm 8 mps 754 mmHg 72%
    12:00 +4°C° 0.5 mm 8 mps 753 mmHg 72%
    13:00 +4°C° 0.3 mm 8 mps 753 mmHg 72%
    14:00 +4°C° 0.3 mm 8 mps 753 mmHg 72%
    15:00 +4°C° 0.3 mm 7 mps 752 mmHg 72%
    16:00 +3°C° 0.1 mm 7 mps 752 mmHg 73%
    17:00 +3°C° 0.1 mm 6 mps 752 mmHg 74%
    18:00 +3°C° 0.1 mm 6 mps 752 mmHg 74%
    19:00 +3°C° 0.1 mm 6 mps 752 mmHg 75%
    20:00 +3°C° 0.1 mm 5 mps 752 mmHg 75%
    21:00 +3°C° 0.1 mm 5 mps 752 mmHg 76%
    22:00 +3°C° 0.4 mm 5 mps 752 mmHg 77%
    23:00 +3°C° 0.4 mm 5 mps 752 mmHg 79%

    21 November, Wednesday

    Time Temperature Precipitation Wind Pressure Humidity
    00:00 +3°C° 0.4 mm 5 mps 751 mmHg 80%
    01:00 +3°C° 0.6 mm 5 mps 751 mmHg 81%
    02:00 +3°C° 0.6 mm 5 mps 751 mmHg 81%
    03:00 +3°C° 0.6 mm 5 mps 751 mmHg 82%
    04:00 +3°C° 0.2 mm 5 mps 751 mmHg 82%
    05:00 +3°C° 0.2 mm 5 mps 752 mmHg 82%
    06:00 +3°C° 0.2 mm 5 mps 752 mmHg 81%
    07:00 +3°C° 0.1 mm 5 mps 753 mmHg 80%
    08:00 +3°C° 0.1 mm 5 mps 753 mmHg 79%
    09:00 +3°C° 0.1 mm 5 mps 754 mmHg 77%
    10:00 +5°C° 0 mm 4 mps 755 mmHg 74%
    11:00 +5°C° 0 mm 4 mps 755 mmHg 70%
    12:00 +6°C° 0 mm 4 mps 756 mmHg 66%
    13:00 +6°C° 0 mm 4 mps 756 mmHg 67%
    14:00 +5°C° 0 mm 3 mps 757 mmHg 68%
    15:00 +6°C° 0 mm 2 mps 757 mmHg 69%
    16:00 +6°C° 0 mm 2 mps 758 mmHg 71%
    17:00 +5°C° 0 mm 2 mps 758 mmHg 73%
    18:00 +5°C° 0 mm 1 mps 759 mmHg 75%
    19:00 +5°C° 0 mm 1 mps 759 mmHg 75%
    20:00 +5°C° 0 mm 1 mps 760 mmHg 76%
    21:00 +5°C° 0 mm 1 mps 760 mmHg 76%
    22:00 +5°C° 0.1 mm 1 mps 760 mmHg 77%
    23:00 +5°C° 0.1 mm 1 mps 760 mmHg 78%

    22 November, Thursday

    Time Temperature Precipitation Wind Pressure Humidity
    00:00 +5°C° 0.1 mm 1 mps 760 mmHg 79%
    01:00 +5°C° 0.2 mm 1 mps 760 mmHg 81%
    02:00 +5°C° 0.2 mm 1 mps 760 mmHg 84%
    03:00 +5°C° 0.2 mm 1 mps 760 mmHg 86%
    04:00 +5°C° 0.1 mm 1 mps 760 mmHg 87%
    05:00 +5°C° 0.1 mm 1 mps 760 mmHg 88%
    06:00 +5°C° 0.1 mm 1 mps 760 mmHg 89%
    07:00 +6°C° 0 mm 1 mps 760 mmHg 88%
    08:00 +6°C° 0 mm 1 mps 760 mmHg 87%
    09:00 +5°C° 0 mm 2 mps 760 mmHg 87%
    10:00 +6°C° 0 mm 2 mps 760 mmHg 83%
    11:00 +6°C° 0 mm 2 mps 760 mmHg 79%
    12:00 +7°C° 0 mm 2 mps 761 mmHg 75%
    13:00 +7°C° 0 mm 2 mps 761 mmHg 75%
    14:00 +8°C° 0 mm 1 mps 760 mmHg 74%
    15:00 +8°C° 0 mm 1 mps 760 mmHg 74%
    16:00 +6°C° 0 mm 2 mps 761 mmHg 76%
    17:00 +5°C° 0 mm 2 mps 761 mmHg 79%
    18:00 +5°C° 0 mm 2 mps 761 mmHg 81%
    19:00 +5°C° 0 mm 2 mps 761 mmHg 82%
    20:00 +4°C° 0 mm 3 mps 761 mmHg 83%
    21:00 +4°C° 0 mm 3 mps 761 mmHg 84%
    22:00 +4°C° 0 mm 3 mps 762 mmHg 85%
    23:00 +4°C° 0 mm 3 mps 762 mmHg 86%

    23 November, Friday

    Time Temperature Precipitation Wind Pressure Humidity
    00:00 +4°C° 0 mm 3 mps 762 mmHg 87%
    01:00 +4°C° 0.3 mm 3 mps 762 mmHg 88%
    02:00 +4°C° 0.3 mm 3 mps 762 mmHg 89%
    03:00 +4°C° 0.3 mm 3 mps 762 mmHg 90%
    04:00 +5°C° 0.5 mm 3 mps 762 mmHg 91%
    05:00 +5°C° 0.5 mm 3 mps 762 mmHg 92%
    06:00 +5°C° 0.5 mm 3 mps 762 mmHg 93%
    07:00 +5°C° 0.1 mm 3 mps 762 mmHg 93%
    08:00 +5°C° 0.1 mm 3 mps 762 mmHg 92%
    09:00 +7°C° 0.1 mm 3 mps 762 mmHg 91%
    10:00 +7°C° 0 mm 3 mps 762 mmHg 88%
    11:00 +8°C° 0 mm 2 mps 762 mmHg 84%
    12:00 +9°C° 0 mm 2 mps 762 mmHg 81%
    13:00 +9°C° 0 mm 2 mps 762 mmHg 82%
    14:00 +9°C° 0 mm 2 mps 761 mmHg 83%
    15:00 +9°C° 0 mm 2 mps 761 mmHg 84%
    16:00 +8°C° 0 mm 2 mps 761 mmHg 85%
    17:00 +8°C° 0 mm 2 mps 761 mmHg 87%
    18:00 +7°C° 0 mm 2 mps 761 mmHg 89%
    19:00 +7°C° 0 mm 2 mps 761 mmHg 89%
    20:00 +7°C° 0 mm 2 mps 761 mmHg 90%
    21:00 +7°C° 0 mm 2 mps 761 mmHg 91%
    22:00 +7°C° 0 mm 2 mps 761 mmHg 91%
    23:00 +7°C° 0 mm 2 mps 761 mmHg 92%
    Show more